Location: Nebula Knoll Observatory
(43.6666°N, 71.0000°W)
Time: 03:11:56
(UTC-05:00)

Daily predictions for brighter satellites

Satellite Brightness Start Highest point End
(mag) Time Altitude Azimuth Time Altitude Azimuth Time Altitude Azimuth
SL-16 R/B 3.8 03:35:21 30° ESE 03:36:20 31° ESE 03:41:17 10° NE
USA 215 3.9 03:45:29 10° ENE 03:51:47 49° SE 03:53:24 41° S
Cosmos 2181 Rocket 4.2 03:57:28 59° NNE 03:58:32 70° E 04:04:52 10° SSE
Cosmos 1709 Rocket 4.4 04:07:18 52° NNE 04:07:18 52° NNE 04:11:53 10° N
Cosmos 2237 Rocket 3.6 04:10:24 28° NNE 04:10:24 28° NNE 04:12:59 10° NNE
CENTAUR R/B 2.4 04:11:31 86° S 04:11:41 88° SE 04:18:37 10° NE
Feng Yun 1-1 Rocket 4.5 04:08:34 10° NNE 04:14:13 67° ESE 04:19:40 10° S
Gbstr 26 Del rocket 4.0 04:26:07 41° SSE 04:26:07 41° SSE 04:28:57 10° SE
Cosmos 1536 Rocket 4.5 04:29:02 30° NNE 04:30:50 48° ENE 04:35:06 10° SSE
Cosmos 1238 Rocket 3.6 04:29:32 46° NNE 04:30:52 68° E 04:36:21 10° SSE
Tiangong 2 3.5 04:33:52 23° E 04:33:52 23° E 04:35:19 10° E
Cosmos 2369 Rocket 4.2 04:30:30 10° N 04:35:06 24° NE 04:39:40 10° ESE
ADEOS II 3.9 04:30:11 10° N 04:31:29 18° N 04:31:29 18° N
Lacrosse 5 rocket 3.4 04:43:21 17° NNE 04:43:21 17° NNE 04:44:56 10° NNE
Meteor 1-20 Rocket 4.4 04:38:55 10° S 04:44:29 72° E 04:49:59 10° NNE
Cosmos 2219 Rocket 4.0 04:49:28 17° NNW 04:49:28 17° NNW 04:51:11 10° N
CZ-4C R/B 4.5 04:47:13 12° NNW 04:48:18 13° N 04:51:12 10° NNE
Lacrosse 5 4.1 04:49:28 10° S 04:53:33 25° ESE 04:57:38 10° ENE
Cosmos 2333 Rocket 3.7 04:56:53 21° NNW 04:56:53 21° NNW 04:59:28 10° N
Cosmos 2297 3.9 04:54:46 45° WSW 04:54:48 45° WSW 05:00:08 10° S
Meteor 1-14 Rocket 4.2 04:50:22 10° SSW 04:55:55 54° WNW 05:01:23 10° N
PSLV R/B 3.9 04:56:41 50° SSE 04:56:41 50° SSE 04:59:39 10° ESE
Cosmos 921 Rocket 3.0 04:55:07 45° NNW 04:56:30 89° W 05:01:01 10° SSE
COSMO-SKYMED 1 2.5 04:52:26 10° SSE 04:56:46 84° ENE 04:59:03 28° N
Cosmos 2056 Rocket 3.9 04:56:41 16° N 05:00:45 60° ENE 05:05:48 10° SSE
SJ-6F 4.2 04:56:54 10° N 05:00:58 74° WNW 05:05:01 10° SSW
Cosmos 2327 Rocket 4.4 04:58:02 10° S 05:04:26 81° W 05:10:47 10° N
Okean 1 3.2 05:09:30 38° NNW 05:10:55 67° W 05:14:55 10° S
USA 32 4.0 05:07:42 10° NNW 05:12:50 57° W 05:17:56 10° SSW
Cosmos 2074 Rocket 3.9 05:07:08 10° SSW 05:13:22 66° W 05:19:37 10° N
Cosmos 923 Rocket 4.5 05:13:21 35° W 05:14:14 37° WNW 05:19:10 10° N
DMSP B5D1-3 4.4 05:09:33 10° SSE 05:14:43 82° WSW 05:19:54 10° NNW
Cosmos 1624 Rocket 4.0 05:10:36 16° NNW 05:14:54 87° ENE 05:20:13 10° SSE
Cosmos 1371 Rocket 3.9 05:15:09 19° NNW 05:18:58 72° WSW 05:24:11 10° S
Meteor 1-25 Rocket 4.4 05:13:35 10° SSW 05:19:15 53° WNW 05:24:58 10° N
Ariane Rocket 3.0 05:14:58 10° NNE 05:20:02 83° ESE 05:25:06 10° SSW
SL-16 R/B 2.6 05:17:22 24° WSW 05:20:18 41° WNW 05:25:40 10° NNE
USA 129 2.9 05:20:51 10° SE 05:22:45 39° ENE 05:22:48 39° ENE
Cosmos 1300 Rocket 3.5 05:18:54 10° S 05:23:19 90° WSW 05:27:46 10° N
Meteor 1-13 Rocket 4.3 05:18:45 10° N 05:24:44 90° E 05:30:42 10° S
CRYOSAT 2 4.4 05:20:17 10° S 05:25:04 55° W 05:29:53 10° NNW
Cosmos 2184 Rocket 4.0 05:21:04 10° SSW 05:27:05 54° WNW 05:33:10 10° N
Cosmos 1812 3.8 05:28:28 26° WSW 05:28:28 26° WSW 05:31:00 10° SSW
Cosmos 292 Rocket 4.2 05:23:41 12° SW 05:27:50 39° WNW 05:32:23 10° N
Cosmos 1602 3.8 05:24:15 10° S 05:28:12 84° E 05:32:11 10° N
Cosmos 1943 Rocket 3.9 05:24:35 10° N 05:29:18 28° NE 05:33:59 10° ESE
Cosmos 1346 Rocket 3.0 05:28:50 26° NW 05:30:36 45° W 05:34:21 10° SSW
SL-24 DEB 4.4 05:26:12 10° S 05:30:58 80° E 05:35:47 10° N
USA 215 3.4 05:28:29 10° NE 05:34:51 57° NNW 05:40:47 12° WSW
CZ-4 R/B 2.5 05:35:00 10° NNE 05:38:51 47° E 05:42:37 10° S
Cosmos 2154 Rocket 3.9 05:36:05 10° SSW 05:42:18 78° W 05:48:32 10° N
Cosmos 1680 Rocket 4.3 05:38:54 12° WSW 05:42:57 28° WNW 05:47:26 10° N
SKYMED 2 4.4 05:41:12 10° SSW 05:44:59 29° W 05:47:41 16° NW
Lacrosse 4 Rocket 3.9 05:43:09 10° N 05:45:50 16° NE 05:48:29 10° E
Meteor 2-13 Rocket 4.4 05:42:11 10° SSW 05:48:19 74° W 05:54:31 10° N
Cosmos 1452 Rocket 3.8 05:45:05 10° NNW 05:50:22 71° ENE 05:55:37 10° SSE
SL-23 DEB 4.4 05:48:55 18° NW 05:50:52 37° NNE 05:54:16 10° E
Cosmos 2237 Rocket 3.9 05:52:17 13° NW 05:52:35 13° NW 05:55:10 10° NNW
IRS-1A Rocket 4.4 05:48:21 10° NNE 05:54:03 89° E 05:59:52 10° SSW
Meteor 1-28 Rocket 3.8 05:51:33 10° SSW 05:55:04 36° W 05:58:37 10° NNW
Cosmos 1536 2.7 05:52:42 10° SSW 05:56:41 75° W 06:00:42 10° N
CZ-3 R/B 3.8 05:55:42 10° SSW 05:57:26 11° SSW 05:58:48 10° S
Cosmos 1633 2.8 05:54:44 10° SSW 05:58:15 44° WNW 06:01:46 10° N
Meteor 2-4 Rocket 3.6 05:53:53 10° NNW 05:59:22 79° W 06:04:58 10° S
CENTAUR R/B 3.6 05:58:46 13° W 06:03:21 27° NNW 06:09:16 10° NNE
Abrixas rocket 3.7 06:00:55 10° SW 06:04:06 39° SE 06:07:16 10° ENE
Tiangong 2 1.1 06:05:56 12° W 06:08:44 77° S 06:11:53 10° E
CSL-04 Debris 4.3 06:03:40 10° N 06:08:59 56° WNW 06:14:19 10° SSW
CSL-04 Rocket 3.9 06:03:55 10° N 06:09:15 48° WNW 06:14:31 10° SW
CZ-2C R/B 2.7 06:04:35 10° NNE 06:09:49 80° ESE 06:14:55 10° S
Helios 1B rocket 2.4 06:05:48 10° SSE 06:09:57 86° WSW 06:14:08 10° NNW
AQUARIUS 4.3 06:05:49 10° NNE 06:10:20 81° ESE 06:14:51 10° S
Meteor 1-5 Rocket 4.3 06:06:41 10° S 06:12:05 81° E 06:17:24 10° NNE
Cosmos 1340 2.9 06:10:28 10° N 06:14:16 75° E 06:18:02 10° SSE
YAOGAN 1 2.7 06:11:06 10° NNE 06:15:28 84° ESE 06:19:48 10° SSW
Cosmos 1603 4.2 06:12:31 10° SW 06:17:47 38° WNW 06:23:03 10° NNE
Cosmos 2369 Rocket 2.3 06:13:56 10° NNW 06:19:34 61° WSW 06:25:10 10° S
Cosmos 1484 Rocket 4.2 06:15:59 10° NNE 06:19:35 42° E 06:23:12 10° S
SL-8 Rocket 4.0 06:13:34 10° S 06:19:50 85° W 06:26:07 10° N
MSX 4.5 06:15:28 10° NNE 06:21:10 62° ESE 06:26:50 10° S
Lacrosse 5 rocket 3.5 06:19:58 10° NNW 06:22:10 14° N 06:24:24 10° NNE
SMAP 3.0 06:18:34 10° N 06:23:14 78° WNW 06:27:53 10° SSW
Cosmos 44 3.6 06:19:44 10° SSW 06:25:07 88° SE 06:30:20 10° NE
Cosmos 1025 Rocket 3.5 06:22:11 10° NNW 06:26:19 40° W 06:30:24 10° SSW
SJ-7 4.4 06:22:54 10° N 06:27:05 71° WNW 06:31:12 10° SSW
Okean 1 Rocket 4.2 06:25:33 10° SW 06:29:06 23° WNW 06:32:39 10° NNW
Meteor 2-19 Rocket 4.5 06:23:48 10° S 06:29:56 84° W 06:36:05 10° N
Cosmos 2366 rocket 4.2 06:23:46 10° S 06:30:02 85° E 06:36:25 10° N
Cosmos 2218 Rocket 4.1 06:26:13 10° S 06:32:37 82° W 06:39:03 10° N
